Location: Mountain Grove
(34.0887°N, 86.6172°W)
Time: 21:47:58
(UTC+00:00)

Cosmos 1697 Rocket - Pass Details

Date: 14 July 2020
Orbit: 834 x 842 km, 71.0° (Epoch: 08 August)

Event Time Altitude Azimuth Distance (km) Brightness Sun altitude
Rises 07:15:47 0° 351° (N) 3,390 6.6 -30.9°
Reaches altitude 10° 07:18:36 10° 3° (N) 2,451 5.9 -30.7°
Maximum altitude 07:23:21 28° 61° (ENE) 1,532 4.4 -30.3°
Enters shadow 07:27:09 14° 113° (ESE) 2,164 4.8 -29.9°
